Regional Weather Roundup
Issued by NWS

Home | Current Version | Previous Version | Graphics & Text | Print | Product List | Glossary On
Versions: 1 2 3 4 5 6 7 8 9 10 11 12 13 14 15 16 17 18 19 20 21 22 23 24 25 26 27 28 29 30 31 32 33 34 35 36 37 38 39 40 41 42 43 44 45 46 47 48 49 50
000
ASUS43 KDMX 211207
RWRIA

WEATHER ROUNDUP FOR IOWA
NATIONAL WEATHER SERVICE DES MOINES IA
600 AM CST SUN DEC 21 2014

NOTE: "FAIR" INDICATES FEW OR NO CLOUDS BELOW 12,000 FEET WITH NO
SIGNIFICANT WEATHER AND/OR OBSTRUCTIONS TO VISIBILITY.

* - THESE STATIONS ARE NOT NWS STATIONS...THUS NOT UNDER NWS
QUALITY CONTROL.  THEY ALSO DO NOT REPORT WEATHER SUCH
AS PRECIPITATION OR FOG.

IAZ001>003-012>014-020>022-031>034-043>046-211300-
   NORTHWEST IOWA

CITY           SKY/WX    TMP DP  RH WIND       PRES   REMARKS
CARROLL *      CLOUDY    37  37 100 S20G26    29.91S FOG     WCI  27
CHEROKEE *     CLOUDY    35  35 100 S12       29.86F FOG     WCI  27
DENISON *      CLOUDY    36  36 100 S16G23    29.88F FOG     WCI  26
LE MARS *      CLOUDY    36  36 100 S12       29.84F FOG     WCI  27
ORANGE CITY *  FOG       36  34  93 S8        29.83F VSB 0   WCI  29
SHELDON *      FOG       32  32 100 S12       29.82F VSB 1/2 WCI  23
SIOUX CITY     FOG       36  35  96 SE7       29.86F VSB 1/2 WCI  30
6HR MIN TEMP:  33; 6HR MAX TEMP:  36;

SPENCER        FOG       34  33  96 S13       29.86F VSB 1/4 WCI  25
6HR MIN TEMP:  32; 6HR MAX TEMP:  34; 6HR PCP: TRACE;

STORM LAKE *   FOG       36  36 100 S14G20    29.87F VSB 1/2 WCI  27
$$

IAZ055>058-069>071-079>083-090>094-211300-
   SOUTHWEST IOWA

CITY           SKY/WX    TMP DP  RH WIND       PRES   REMARKS
ATLANTIC *     CLOUDY    36  36 100 S15G21    29.94S FOG     WCI  26
AUDUBON *      CLOUDY    36  32  87 S15       29.94R FOG     WCI  26
CLARINDA *     CLOUDY    37  36  93 S10       30.00F WCI  30
COUNCIL BLFS * CLOUDY    37  37 100 S15       29.90F FOG     WCI  28
CRESTON *      CLOUDY    36  36 100 S14G21    29.99S FOG     WCI  27
HARLAN  *      CLOUDY    36  36 100 S15G22    29.95F FOG     WCI  26
LAMONI         CLOUDY    36  34  92 S10       30.03S WCI  28
6HR MIN TEMP:  35; 6HR MAX TEMP:  37;

RED OAK *      CLOUDY    37  37 100 S14       29.96F FOG     WCI  29
SHENANDOAH *   CLOUDY    37  36  93 S13       29.97F WCI  29
$$

IAZ047>049-059>061-072>074-084-211300-
   CENTRAL IOWA

CITY           SKY/WX    TMP DP  RH WIND       PRES   REMARKS
AMES           CLOUDY    37  34  89 S15       29.98F FOG     WCI  28
6HR MIN TEMP:  34; 6HR MAX TEMP:  37;

ANKENY *       CLOUDY    37  36  93 S13       30.00F WCI  29
CHARITON *     CLOUDY    37  36  93 S13       30.03S WCI  29
DES MOINES     CLOUDY    38  34  85 S12       30.01S WCI  30
6HR MIN TEMP:  37; 6HR MAX TEMP:  39;

GRINNELL*      CLOUDY    36  36 100 S16       30.04R FOG     WCI  26
KNOXVILLE *    CLOUDY    37  36  93 S12       30.02S WCI  30
MARSHALLTOWN   CLOUDY    36  35  96 S12       30.00S FOG     WCI  28
6HR MIN TEMP:  33; 6HR MAX TEMP:  36;

PELLA *        CLOUDY    38  35  90 S10       30.05S WCI  31
PERRY *        CLOUDY    37  36  93 S15       29.96S FOG     WCI  28
$$

IAZ004>006-015-016-023>025-035-036-211300-
   NORTH CENTRAL IOWA

CITY           SKY/WX    TMP DP  RH WIND       PRES   REMARKS
ALGONA *       FOG       36  36 100 S14       29.90F VSB 1/4 WCI  27
CLARION *      CLOUDY    36  36 100 S17       29.94S FOG     WCI  25
ESTHERVILLE    FOG       32  32 100 S14       29.85F VSB 1/4 WCI  22
6HR MIN TEMP:  30; 6HR MAX TEMP:  32;

FORT DODGE *   CLOUDY    36  34  93 S13G18    29.93S WCI  27
MASON CITY     FOG       33  33 100 S12       29.96F VSB 1/2 WCI  24
6HR MIN TEMP:  32; 6HR MAX TEMP:  33;

FOREST CITY *  FOG       34  32  93 SE13      29.92F VSB 1/4 WCI  25
IOWA FALLS *   CLOUDY    35  35  98 S16       29.97F FOG     WCI  25
$$

IAZ007>011-017>019-026>030-037>042-050>054-066-211300-
   NORTHEAST IOWA

CITY           SKY/WX    TMP DP  RH WIND       PRES   REMARKS
CEDAR RAPIDS   CLOUDY    35  35 100 S12       30.06S FOG     WCI  27
6HR MIN TEMP:  33; 6HR MAX TEMP:  35;

CHARLES CITY * FOG       34  34 100 S15       29.99F VSB 1/4 WCI  24
CLINTON *      CLOUDY    34  30  86 SE10      30.15S WCI  26
DECORAH *      FOG       32  32 100 S10       30.01S VSB 1/4 WCI  24
DUBUQUE        CLOUDY    33  32  96 S15       30.08F FOG     WCI  23
6HR MIN TEMP:  31; 6HR MAX TEMP:  33;

MONTICELLO *   CLOUDY    34  34 100 S10       30.08S FOG     WCI  26
OELWEIN *      FOG       34  34 100 S13       30.03F VSB 1/4 WCI  25
WATERLOO       LGT RAIN  35  35 100 S10       30.01F FOG     WCI  27
6HR MIN TEMP:  32; 6HR MAX TEMP:  35; 6HR PCP: TRACE;

$$

IAZ064-065-067-068-078-211300-
   EAST CENTRAL IOWA

CITY           SKY/WX    TMP DP  RH WIND       PRES   REMARKS
DAVENPORT      CLOUDY    35  31  85 S12       30.12F WCI  27
6HR MIN TEMP:  33; 6HR MAX TEMP:  35;

IOWA CITY      CLOUDY    36  34  92 SE7       30.10F WCI  30
6HR MIN TEMP:  34; 6HR MAX TEMP:  36;

MT. PLEASANT * CLOUDY    37  35  94 S9        30.12S WCI  30
MUSCATINE *    CLOUDY    37  34  87 SE5       30.13S WCI  34
QUAD CITIES    CLOUDY    35  32  88 S8        30.13S WCI  29
6HR MIN TEMP:  34; 6HR MAX TEMP:  35;

$$

IAZ062-063-075>077-085>089-095>099-211300-
   SOUTHEAST IOWA

CITY           SKY/WX    TMP DP  RH WIND       PRES   REMARKS
BURLINGTON     MIX PCPN  37  35  92 S8        30.13S WCI  31
6HR MIN TEMP:  36; 6HR MAX TEMP:  38; 6HR PCP: TRACE;

FAIRFIELD *    CLOUDY    37  34  87 S10       30.09S WCI  30
FORT MADISON * CLOUDY    39  37  93 S8        30.14S WCI  34
KEOKUK *       CLOUDY    37  36  93 SE5       30.13S WCI  34
OSKALOOSA *    CLOUDY    36  34  93 S10       30.06F WCI  28
CENTERVILLE *  MOCLDY    37  37 100 S10       30.07S WCI  30
OTTUMWA        CLOUDY    37  34  89 S12       30.06F WCI  29
6HR MIN TEMP:  36; 6HR MAX TEMP:  37;

WASHINGTON *   CLOUDY    37  37 100 S12       30.09F WCI  30
$$

ABBREVIATIONS USED IN REMARKS
   TC - TEMPERATURES IN CELSIUS
  WCI - WIND CHILL INDEX
   HX - HEAT INDEX
  VSB - VISIBILITY
$$



USA.gov is the U.S. government's official web portal to all federal, state and local government web resources and services.